Location: Gloden
(48.4833°N, 15.3167°E)
Time: 22:47:32
(UTC+00:00)

Cosmos 44 - Pass Details

Date: 15 December 2019
Orbit: 595 x 767 km, 65.1° (Epoch: 24 January)

Event Time Altitude Azimuth Distance (km) Brightness Sun altitude
Exits shadow 04:23:59 53° 235° (SW) 787 3.3 -22.0°
Maximum altitude 04:25:01 78° 309° (NW) 654 3.0 -21.8°
Drops below altitude 10° 04:29:31 10° 36° (NE) 1,988 5.9 -21.1°
Sets 04:31:45 0° 38° (NE) 2,879 6.8 -20.7°
